JTA9 RJBB-ROAH

Flight info

Callsign JTA9
Flight time N/A
Altitude 39000
Route OBLUR Y236 MULAB Y75 ONC Y525 IHEYA
Aircraft A20N/M-SDE2E3FGHIRWXY/LB1

Departure

Time 2026-04-29 08:53
Airport Kansai International Airport (RJBB)

Arrival

Time N/A
Airport Naha International Airport (ROAH)
Time Latitude Longitude Altitude Speed Heading
2026-04-29 08:47 34.43847 135.25230 29 ft 0 kts 319°
2026-04-29 08:51 34.43839 135.25238 30 ft 3 kts 319°
2026-04-29 08:51 34.43821 135.25257 30 ft 2 kts 334°
2026-04-29 08:51 34.43812 135.25266 28 ft 2 kts 286°
2026-04-29 08:51 34.43812 135.25281 30 ft 0 kts 232°
2026-04-29 08:52 34.43806 135.25278 29 ft 5 kts 205°
2026-04-29 08:52 34.43671 135.25321 26 ft 26 kts 136°
2026-04-29 08:52 34.43505 135.25465 30 ft 27 kts 174°
2026-04-29 08:53 34.43340 135.25299 32 ft 57 kts 230°
2026-04-29 08:53 34.42846 135.24570 29 ft 167 kts 231°
2026-04-29 08:53 34.42028 135.23342 737 ft 202 kts 231°
2026-04-29 08:53 34.41156 135.21885 1765 ft 230 kts 237°
2026-04-29 08:54 34.40314 135.20066 2713 ft 263 kts 244°
2026-04-29 08:54 34.39492 135.18034 4209 ft 267 kts 246°
2026-04-29 08:54 34.38710 135.16044 6171 ft 256 kts 248°
2026-04-29 08:54 34.37969 135.14134 8081 ft 246 kts 248°
2026-04-29 08:55 34.37261 135.12297 9852 ft 243 kts 248°
2026-04-29 08:55 34.36540 135.10412 11221 ft 256 kts 248°
2026-04-29 08:55 34.35748 135.08329 11934 ft 290 kts 248°
2026-04-29 08:55 34.34852 135.05978 12520 ft 324 kts 247°
2026-04-29 08:56 34.33877 135.03435 13464 ft 340 kts 246°
2026-04-29 08:56 34.32864 135.00803 14611 ft 348 kts 246°
2026-04-29 08:56 34.31834 134.98128 15763 ft 354 kts 247°
2026-04-29 08:56 34.30788 134.95409 16893 ft 359 kts 247°
2026-04-29 08:57 34.29729 134.92657 18028 ft 362 kts 247°
2026-04-29 08:57 34.28677 134.89921 18944 ft 366 kts 247°
2026-04-29 08:57 34.27595 134.87111 19733 ft 372 kts 247°
2026-04-29 08:57 34.26496 134.84260 20500 ft 376 kts 248°
2026-04-29 08:58 34.25386 134.81383 21218 ft 380 kts 247°
2026-04-29 08:58 34.24258 134.78465 21854 ft 386 kts 247°
2026-04-29 08:58 34.23116 134.75509 22539 ft 390 kts 247°
2026-04-29 08:58 34.21964 134.72531 23195 ft 394 kts 247°
2026-04-29 08:59 34.20797 134.69516 23799 ft 398 kts 247°
2026-04-29 08:59 34.19636 134.66520 24301 ft 401 kts 247°
2026-04-29 08:59 34.18449 134.63461 24833 ft 404 kts 247°
2026-04-29 08:59 34.17254 134.60382 25411 ft 406 kts 247°
2026-04-29 09:00 34.16052 134.57289 25945 ft 409 kts 247°
2026-04-29 09:00 34.14836 134.54162 26442 ft 413 kts 247°
2026-04-29 09:00 34.13610 134.51015 26977 ft 416 kts 247°
2026-04-29 09:00 34.12381 134.47860 27627 ft 415 kts 247°
2026-04-29 09:01 34.11173 134.44766 28423 ft 410 kts 246°
2026-04-29 09:01 34.09962 134.41667 29177 ft 407 kts 246°
2026-04-29 09:01 34.08689 134.38624 29878 ft 406 kts 243°
2026-04-29 09:01 34.07142 134.35783 30452 ft 407 kts 237°
2026-04-29 09:02 34.05409 134.33076 30953 ft 408 kts 235°
2026-04-29 09:02 34.03615 134.30429 31507 ft 407 kts 234°
2026-04-29 09:02 34.01798 134.27822 32109 ft 405 kts 234°
2026-04-29 09:02 33.99981 134.25236 32717 ft 403 kts 234°
2026-04-29 09:03 33.98173 134.22661 33337 ft 401 kts 234°
2026-04-29 09:03 33.96405 134.20133 33892 ft 399 kts 235°
2026-04-29 09:03 33.94623 134.17573 34394 ft 398 kts 236°
2026-04-29 09:03 33.92853 134.15019 34886 ft 397 kts 236°
2026-04-29 09:04 33.91090 134.12470 35346 ft 395 kts 236°
2026-04-29 09:04 33.89335 134.09936 35801 ft 394 kts 236°
2026-04-29 09:04 33.87581 134.07400 36213 ft 394 kts 236°
2026-04-29 09:04 33.85854 134.04907 36610 ft 394 kts 237°
2026-04-29 09:05 33.84118 134.02398 36842 ft 397 kts 237°
2026-04-29 09:05 33.82340 133.99828 37176 ft 399 kts 237°
2026-04-29 09:05 33.80563 133.97269 37592 ft 399 kts 237°
2026-04-29 09:05 33.78788 133.94714 37992 ft 398 kts 237°
2026-04-29 09:06 33.77015 133.92155 38379 ft 397 kts 238°
2026-04-29 09:06 33.75327 133.89550 38661 ft 394 kts 240°
2026-04-29 09:06 33.73707 133.86894 38808 ft 393 kts 241°
2026-04-29 09:06 33.72142 133.84250 39031 ft 394 kts 241°
2026-04-29 09:07 33.70568 133.81566 39061 ft 392 kts 241°
2026-04-29 09:07 33.67415 133.76213 39028 ft 393 kts 241°
2026-04-29 09:08 33.64239 133.70876 39027 ft 392 kts 241°
2026-04-29 09:08 33.61056 133.65568 39021 ft 393 kts 240°
2026-04-29 09:09 33.57856 133.60243 39024 ft 394 kts 241°
2026-04-29 09:09 33.54669 133.54950 39022 ft 394 kts 241°
2026-04-29 09:10 33.51459 133.49623 39014 ft 394 kts 240°
2026-04-29 09:10 33.48241 133.44290 39030 ft 395 kts 240°
2026-04-29 09:11 33.45016 133.38953 39045 ft 395 kts 241°
2026-04-29 09:11 33.41790 133.33689 39056 ft 396 kts 239°
2026-04-29 09:12 33.38361 133.28511 39057 ft 398 kts 238°
2026-04-29 09:12 33.34853 133.23354 39060 ft 400 kts 238°
2026-04-29 09:13 33.31349 133.18199 39049 ft 398 kts 238°
2026-04-29 09:13 33.27893 133.13092 39054 ft 397 kts 238°
2026-04-29 09:14 33.24419 133.07948 39054 ft 398 kts 238°
2026-04-29 09:14 33.20935 133.02797 39049 ft 398 kts 238°
2026-04-29 09:15 33.17456 132.97663 39056 ft 397 kts 238°
2026-04-29 09:15 33.13979 132.92540 39050 ft 397 kts 238°
2026-04-29 09:16 33.10524 132.87456 39046 ft 397 kts 238°
2026-04-29 09:16 33.07046 132.82350 39050 ft 396 kts 238°
2026-04-29 09:17 33.03570 132.77247 39044 ft 397 kts 237°
2026-04-29 09:17 32.99915 132.72250 39048 ft 402 kts 234°
2026-04-29 09:18 32.96064 132.67404 39054 ft 403 kts 233°
2026-04-29 09:18 32.92212 132.62604 39030 ft 403 kts 233°
2026-04-29 09:19 32.88381 132.57793 39056 ft 403 kts 233°
2026-04-29 09:19 32.84566 132.52980 39060 ft 402 kts 233°
2026-04-29 09:20 32.80728 132.48135 39058 ft 402 kts 233°
2026-04-29 09:20 32.76891 132.43297 39058 ft 402 kts 233°
2026-04-29 09:21 32.73051 132.38463 39062 ft 402 kts 233°
2026-04-29 09:21 32.69242 132.33677 39064 ft 401 kts 233°
2026-04-29 09:22 32.65412 132.28870 39045 ft 401 kts 233°
2026-04-29 09:22 32.61573 132.24058 39067 ft 401 kts 233°
2026-04-29 09:23 32.57733 132.19252 39079 ft 401 kts 233°
2026-04-29 09:23 32.53893 132.14451 39063 ft 401 kts 233°
2026-04-29 09:24 32.50073 132.09684 39065 ft 401 kts 233°
2026-04-29 09:24 32.46075 132.05039 39067 ft 408 kts 226°
2026-04-29 09:25 32.41329 132.01231 39064 ft 415 kts 220°
2026-04-29 09:25 32.36366 131.97694 39060 ft 417 kts 219°
2026-04-29 09:26 32.31396 131.94233 39065 ft 417 kts 219°
2026-04-29 09:26 32.26397 131.90738 39064 ft 417 kts 219°
2026-04-29 09:27 32.21406 131.87231 39047 ft 417 kts 218°
2026-04-29 09:27 32.16415 131.83719 39061 ft 418 kts 218°
2026-04-29 09:28 32.11445 131.80226 39065 ft 418 kts 218°
2026-04-29 09:28 32.06443 131.76717 39050 ft 418 kts 218°
2026-04-29 09:29 32.01439 131.73212 39059 ft 418 kts 218°
2026-04-29 09:29 31.93931 131.67960 39054 ft 418 kts 218°
2026-04-29 09:30 31.88954 131.64484 39041 ft 418 kts 218°
2026-04-29 09:30 31.83954 131.60996 39050 ft 418 kts 218°
2026-04-29 09:31 31.78951 131.57510 39050 ft 418 kts 218°
2026-04-29 09:31 31.73950 131.54031 39038 ft 417 kts 218°
2026-04-29 09:32 31.68958 131.50562 39052 ft 417 kts 218°
2026-04-29 09:32 31.64003 131.47123 39056 ft 417 kts 218°
2026-04-29 09:33 31.59013 131.43664 39053 ft 417 kts 218°
2026-04-29 09:33 31.54019 131.40206 39050 ft 417 kts 217°
2026-04-29 09:34 31.49032 131.36758 39050 ft 418 kts 217°
2026-04-29 09:34 31.44021 131.33298 39050 ft 418 kts 217°
2026-04-29 09:35 31.39004 131.29838 39042 ft 418 kts 217°
2026-04-29 09:35 31.34026 131.26409 39044 ft 418 kts 217°
2026-04-29 09:36 31.29018 131.22964 39042 ft 418 kts 217°
2026-04-29 09:36 31.24003 131.19519 39042 ft 418 kts 217°
2026-04-29 09:37 31.18994 131.16081 39039 ft 418 kts 217°
2026-04-29 09:37 31.14014 131.12668 39044 ft 418 kts 217°
2026-04-29 09:38 31.09006 131.09240 39035 ft 416 kts 217°
2026-04-29 09:38 31.04009 131.05824 39039 ft 417 kts 217°
2026-04-29 09:39 30.99003 131.02404 39042 ft 417 kts 217°
2026-04-29 09:39 30.93995 130.98989 39039 ft 417 kts 217°
2026-04-29 09:40 30.89018 130.95599 39036 ft 418 kts 217°
2026-04-29 09:40 30.83993 130.92178 39042 ft 419 kts 217°
2026-04-29 09:41 30.78962 130.88761 39045 ft 418 kts 217°
2026-04-29 09:41 30.73981 130.85383 39032 ft 417 kts 217°
2026-04-29 09:42 30.68968 130.81983 39045 ft 418 kts 217°
2026-04-29 09:42 30.63947 130.78583 39045 ft 418 kts 217°
2026-04-29 09:43 30.58923 130.75185 39045 ft 418 kts 217°
2026-04-29 09:43 30.53901 130.71793 39056 ft 418 kts 217°
2026-04-29 09:44 30.48908 130.68426 39038 ft 418 kts 217°
2026-04-29 09:44 30.43888 130.65043 39049 ft 418 kts 217°
2026-04-29 09:45 30.38862 130.61661 39035 ft 417 kts 217°
2026-04-29 09:45 30.33850 130.58293 39040 ft 416 kts 217°
2026-04-29 09:46 30.28876 130.54957 39040 ft 416 kts 217°
2026-04-29 09:46 30.23869 130.51602 39040 ft 416 kts 217°
2026-04-29 09:47 30.18863 130.48254 39039 ft 416 kts 217°
2026-04-29 09:47 30.13864 130.44915 39040 ft 415 kts 217°
2026-04-29 09:48 30.08873 130.41584 39039 ft 414 kts 216°
2026-04-29 09:48 30.03914 130.38278 39034 ft 415 kts 217°
2026-04-29 09:49 29.98909 130.34945 39035 ft 416 kts 217°
2026-04-29 09:49 29.93891 130.31610 39035 ft 416 kts 217°
2026-04-29 09:50 29.88872 130.28280 39034 ft 416 kts 216°
2026-04-29 09:50 29.83841 130.24943 39043 ft 419 kts 216°
2026-04-29 09:51 29.78824 130.21621 39035 ft 419 kts 216°
2026-04-29 09:51 29.73770 130.18280 39035 ft 419 kts 216°
2026-04-29 09:52 29.68721 130.14945 39032 ft 419 kts 216°
2026-04-29 09:52 29.63651 130.11598 39029 ft 421 kts 216°
2026-04-29 09:53 29.58593 130.08265 39031 ft 422 kts 216°
2026-04-29 09:53 29.53502 130.04916 39036 ft 422 kts 216°
2026-04-29 09:54 29.48413 130.01572 39036 ft 421 kts 216°
2026-04-29 09:54 29.43334 129.98240 39035 ft 420 kts 216°
2026-04-29 09:55 29.38256 129.94911 39035 ft 420 kts 216°
2026-04-29 09:55 29.33215 129.91609 39029 ft 421 kts 215°
2026-04-29 09:56 29.28121 129.88275 39039 ft 423 kts 215°
2026-04-29 09:56 29.23011 129.84937 39028 ft 423 kts 215°
2026-04-29 09:57 29.17894 129.81599 39032 ft 423 kts 214°
2026-04-29 09:57 29.12820 129.78292 39033 ft 423 kts 214°
2026-04-29 09:58 29.07711 129.74967 39027 ft 422 kts 214°
2026-04-29 09:58 29.02607 129.71647 39029 ft 422 kts 214°
2026-04-29 09:59 28.97501 129.68331 39016 ft 422 kts 214°
2026-04-29 09:59 28.92416 129.65031 39026 ft 424 kts 214°
2026-04-29 10:00 28.87290 129.61708 39028 ft 424 kts 214°
2026-04-29 10:00 28.82162 129.58390 39032 ft 424 kts 214°
2026-04-29 10:01 28.77031 129.55073 39025 ft 423 kts 215°
2026-04-29 10:01 28.71911 129.51766 39025 ft 423 kts 215°
2026-04-29 10:02 28.66824 129.48484 39023 ft 423 kts 215°
2026-04-29 10:02 28.61697 129.45181 39007 ft 423 kts 214°
2026-04-29 10:03 28.56571 129.41881 39025 ft 423 kts 215°
2026-04-29 10:03 28.51444 129.38585 39022 ft 423 kts 215°
2026-04-29 10:04 28.46349 129.35313 39026 ft 423 kts 215°
2026-04-29 10:04 28.41224 129.32026 39022 ft 422 kts 215°
2026-04-29 10:05 28.36101 129.28743 39023 ft 423 kts 215°
2026-04-29 10:05 28.30976 129.25462 39026 ft 423 kts 215°
2026-04-29 10:06 28.25841 129.22180 39023 ft 423 kts 215°
2026-04-29 10:06 28.20739 129.18921 39024 ft 425 kts 215°
2026-04-29 10:07 28.15595 129.15641 38845 ft 421 kts 215°
2026-04-29 10:07 28.13042 129.14016 38600 ft 421 kts 215°
2026-04-29 10:07 28.10489 129.12389 38331 ft 422 kts 215°
2026-04-29 10:08 28.07944 129.10770 38089 ft 415 kts 215°
2026-04-29 10:08 28.05437 129.09177 37553 ft 412 kts 215°
2026-04-29 10:08 28.02940 129.07590 36987 ft 411 kts 214°
2026-04-29 10:08 28.00450 129.06006 36398 ft 410 kts 214°
2026-04-29 10:09 27.97966 129.04426 35786 ft 410 kts 214°
2026-04-29 10:09 27.95473 129.02841 35149 ft 411 kts 214°
2026-04-29 10:09 27.93009 129.01275 34487 ft 413 kts 214°